Valdosta Regional, GA

5:57 PM EDT on March 27, 2017 (GMT -0400)
Valdosta Regional

Weather History for KVLD - April, 2014

Change the Weather History Date:

Wednesday, April 23, 2014

  Actual Average Record
Temperature  
Mean Temperature 74 °F 68 °F  
Max Temperature 87 °F 81 °F 91 °F (1999)
Min Temperature 60 °F 54 °F 46 °F (2005)
Degree Days  
Heating Degree Days 0 1  
Month to date heating degree days 28 61  
Since 1 July heating degree days 1238 1627  
Cooling Degree Days 9 4  
Month to date cooling degree days 97 61  
Year to date cooling degree days 162 104  
Growing Degree Days 23 (Base 50)    
Moisture  
Dew Point 59 °F    
Average Humidity 64    
Maximum Humidity 90    
Minimum Humidity 37    
Precipitation  
Precipitation 0.00 in 0.07 in 1.55 in (1997)
Month to date precipitation 8.21 2.41  
Year to date precipitation 18.51 16.01  
Sea Level Pressure  
Sea Level Pressure 29.92 in    
Wind  
Wind Speed 1 mph (North)    
Max Wind Speed 9 mph    
Max Gust Speed 14 mph    
Visibility 8 miles    
Events      
T = Trace of Precipitation, MM = Missing Value Source: NWS Daily Summary

Daily Weather History Graph

Daily Weather History Graph

Search for Another Location

Airport or City:

Trip Planner

Search our weather history database for the weather conditions in past years. The results will help you decide how hot, cold, wet, or windy it might be!

Date:

Astronomy

Apr. 23, 2014 Rise Set
Actual Time 6:56 AM EDT 8:06 PM EDT
Civil Twilight 6:31 AM EDT 8:31 PM EDT
Nautical Twilight 6:01 AM EDT 9:01 PM EDT
Astronomical Twilight 5:31 AM EDT 9:32 PM EDT
Moon 3:03 AM EDT (4/23) 2:36 PM EDT (4/23)
Length of Visible Light 13h 59m
Length of Day
13h 09m
Waning Crescent, 35% of the Moon is Illuminated
Apr 23
Waning Crescent
Apr 29
New
May 6
First Quarter
May 14
Full
May 21
Last Quarter

Hourly Weather History & Observations

Time (EDT) Temp. Heat Index Dew Point Humidity Pressure Visibility Wind Dir Wind Speed Gust Speed Precip Events Conditions
12:53 AM 62.1 °F - 57.0 °F 84% 29.91 in 10.0 mi Calm Calm - N/A   Clear
1:53 AM 62.1 °F - 57.0 °F 84% 29.90 in 6.0 mi Calm Calm - 0.00 in   Haze
2:53 AM 61.0 °F - 55.9 °F 83% 29.89 in 6.0 mi Calm Calm - N/A   Haze
3:53 AM 61.0 °F - 55.9 °F 83% 29.88 in 4.0 mi Calm Calm - N/A   Haze
4:53 AM 61.0 °F - 57.0 °F 87% 29.90 in 5.0 mi Calm Calm - N/A   Mostly Cloudy
5:53 AM 62.1 °F - 57.0 °F 84% 29.90 in 7.0 mi Calm Calm - N/A   Clear
6:53 AM 60.1 °F - 55.0 °F 83% 29.93 in 4.0 mi Calm Calm - N/A   Haze
7:53 AM 64.0 °F - 59.0 °F 84% 29.95 in 6.0 mi Calm Calm - N/A   Haze
8:53 AM 70.0 °F - 61.0 °F 73% 29.96 in 10.0 mi Calm Calm - N/A   Clear
9:53 AM 75.9 °F - 63.0 °F 64% 29.97 in 10.0 mi Calm Calm - N/A   Clear
10:53 AM 80.1 °F 81.2 °F 62.1 °F 54% 29.98 in 10.0 mi Variable 4.6 mph - N/A   Scattered Clouds
11:53 AM 81.0 °F 81.7 °F 61.0 °F 50% 29.97 in 10.0 mi Variable 3.5 mph - N/A   Scattered Clouds
1:53 PM 86.0 °F 85.7 °F 60.1 °F 41% 29.93 in 10.0 mi Variable 4.6 mph - N/A   Mostly Cloudy
2:53 PM 84.0 °F 84.0 °F 60.1 °F 44% 29.92 in 10.0 mi Variable 4.6 mph - N/A   Partly Cloudy
3:53 PM 84.9 °F 84.8 °F 60.1 °F 43% 29.90 in 10.0 mi Variable 4.6 mph - N/A   Scattered Clouds
4:53 PM 86.0 °F 85.4 °F 59.0 °F 40% 29.88 in 10.0 mi Calm Calm - N/A   Clear
5:53 PM 86.0 °F 85.0 °F 57.9 °F 38% 29.88 in 10.0 mi Variable 4.6 mph - N/A   Partly Cloudy
6:53 PM 82.0 °F 82.1 °F 59.0 °F 45% 29.89 in 10.0 mi Calm Calm - N/A   Clear
7:53 PM 75.9 °F - 62.1 °F 62% 29.90 in 10.0 mi Calm Calm - N/A   Clear
8:53 PM 71.1 °F - 61.0 °F 70% 29.92 in 10.0 mi Calm Calm - 0.00 in   Clear
9:53 PM 68.0 °F - 61.0 °F 78% 29.94 in 10.0 mi Calm Calm - N/A   Clear
10:53 PM 69.1 °F - 62.1 °F 78% 29.96 in 8.0 mi Calm Calm - N/A   Clear
11:53 PM 66.9 °F - 62.1 °F 84% 29.96 in 6.0 mi Calm Calm - N/A   Haze